Other Public Products
Issued by NWS Grand Forks, ND

Home | Current Version | Previous Version | Graphics & Text | Print | Product List | Glossary On
Versions: 1 2 3 4 5 6 7 8 9 10 11 12 13 14 15 16 17 18 19 20 21 22 23 24 25 26 27 28 29 30 31 32 33 34 35 36 37 38 39 40 41 42 43 44 45 46 47 48 49 50
000
FPUS83 KFGF 231210
OPUFGF
PRAIRIE TO PINES WEATHER ROUNDUP
NATIONAL WEATHER SERVICE EASTERN NORTH DAKOTA/GRAND FORKS ND
700 AM CDT TUE MAY 23 2017

 **SATELLITE DATA USED TO AUGMENT SKY COVER AT AUTOMATED STATIONS**
 *****  WEATHER ACROSS EASTERN NORTH DAKOTA  *****

CITY           SKY/WX    TMP DP  RH WIND       PRES   REMARKS
GRAND FORKS    CLOUDY    50  45  83 N17G25    29.97R
6HR MIN TEMP:  49; 6HR MAX TEMP:  50; 6HR PCP: TRACE;

GRAND FORKS AF CLOUDY    47  45  93 NE16G24   29.98R
GRAND CITY NWS NOT AVBL
BUXTON         NOT AVBL
DEVILS LAKE    CLOUDY    45  39  81 N17       30.05R
6HR MIN TEMP:  45; 6HR MAX TEMP:  48;

FARGO          CLOUDY    48  46  93 N18       29.91R
6HR MIN TEMP:  47; 6HR MAX TEMP:  49; 6HR PCP:  0.02;

WAHPETON ARPT  CLOUDY    46  43  87 N12       29.90S
$$

 *****  WEATHER ACROSS CENTRAL AND WESTERN NORTH DAKOTA  *****

CITY           SKY/WX    TMP DP  RH WIND       PRES   REMARKS
JAMESTOWN      LGT RAIN  46  43  89 N15       29.98S
6HR MIN TEMP:  45; 6HR MAX TEMP:  47; 6HR PCP:  0.01;

BISMARCK       CLOUDY    53  37  54 N14G24    30.07R
6HR MIN TEMP:  51; 6HR MAX TEMP:  53;

MINOT          FAIR      44  37  76 NW8       30.14R
6HR MIN TEMP:  41; 6HR MAX TEMP:  49;

MINOT AFB      FAIR      42  36  78 NW9       30.13R
6HR MIN TEMP:  37; 6HR MAX TEMP:  43;

GARRISON         N/A     40  35  83 NW13      30.12R
6HR MIN TEMP:  39; 6HR MAX TEMP:  47;

WILLISTON      FAIR      37  33  85 CALM      30.17S
6HR MIN TEMP:  34; 6HR MAX TEMP:  50;

DICKINSON      FAIR      37  33  85 W7        30.13R
6HR MIN TEMP:  34; 6HR MAX TEMP:  48;

HETTINGER      FAIR      38  33  82 NW5       30.14S
6HR MIN TEMP:  31; 6HR MAX TEMP:  52;

$$

 *****  OTHER OBSERVATIONS NORTHEAST NORTH DAKOTA  *****

CITY           SKY/WX    TMP DP  RH WIND       PRES   REMARKS
WALHALLA       NOT AVBL
LANGDON        FAIR      45  43  93 N15G21    30.05R
CAVALIER       FAIR      46  43  87 N13G18    30.03R
GRAFTON        CLOUDY    46  46 100 N14G22    30.01R
CANDO          NOT AVBL
FORT TOTTEN      N/A     46  44  91 N7        29.95
ROLLA          FAIR      45  39  81 N14       30.11R
RUGBY          NOT AVBL
 ***** THE ABOVE OBSERVATIONS ARE NON NWS ARE NOT QUALITY
        CONTROLLED AND MAY MIS-REPORT RAIN FOR SNOW...
$$

 *****  OTHER OBSERVATIONS SOUTHEAST NORTH DAKOTA *****

CITY           SKY/WX    TMP DP  RH WIND       PRES   REMARKS
COOPERSTOWN    CLOUDY    45  45 100 N16       29.99R FOG
VALLEY CITY    NOT AVBL
OAKES          NOT AVBL
GWINNER        CLOUDY    46  45  93 MISG      29.93S FOG
SHEYENNE NWR     N/A     46  46  98 N8        29.95S
BUFFALO        NOT AVBL
WYNDMERE         N/A     46  45  93 N14         N/A
 ***** THE ABOVE OBSERVATIONS ARE NON NWS ARE NOT QUALITY
       CONTROLLED AND MAY MIS-REPORT RAIN FOR SNOW...
$$

  *****  WEATHER ACROSS NORTHERN MINNESOTA  *****

CITY           SKY/WX    TMP DP  RH WIND       PRES   REMARKS
FLAG ISLAND    CLOUDY    48  41  76 NE16G22   29.97R HAZE
WARROAD        CLOUDY    48  43  81 NE15G23   29.98R
ROSEAU         CLOUDY    48  43  81 N13G18    29.97R
HALLOCK        FAIR      48  45  87 N13       30.01R
THF RVR FALLS  CLOUDY    46  44  93 N15       29.95R
6HR MIN TEMP:  46; 6HR MAX TEMP:  47; 6HR PCP: TRACE;

HALSTAD          N/A     47  45  91 N18         N/A
FOSSTON        DRIZZLE   45  43  93 N13       29.91R
BAUDETTE       CLOUDY    47  43  86 N10       29.94R
6HR MIN TEMP:  46; 6HR MAX TEMP:  47; 6HR PCP:  0.01;

WASKISH        CLOUDY    46  45  93 NE9G20    29.91R
CROOKSTON      CLOUDY    46  45  93 N12G17    29.95S
$$
  *****  WEATHER ACROSS CENTRAL AND WEST MINNESOTA  *****

CITY           SKY/WX    TMP DP  RH WIND       PRES   REMARKS
BEMIDJI        RAIN      46  46  99 NE8       29.87R
PARK RAPIDS    LGT RAIN  47  44  90 N6        29.85R FOG
6HR MIN TEMP:  45; 6HR MAX TEMP:  47; 6HR PCP:  0.10;

WADENA         LGT RAIN  45  45 100 N7        29.85R
DETROIT LAKES  CLOUDY    45  45 100 N8        29.89R FOG
MOORHEAD       CLOUDY    46  45  93 N18       29.92R
FERGUS FALLS   DRIZZLE   46  46 100 N7        29.88R
ELBOW LAKE     CLOUDY    46  46  99 NW10      29.87S
MORRIS MN      CLOUDY    46  46 100 N10       29.86R
STAPLES        CLOUDY    45  45 100 N7        29.85R
WHEATON        LGT RAIN  46  45  93 NW12      29.91R
$$
  *****  WEATHER ELSEWHERE ACROSS MINNESOTA  *****

CITY           SKY/WX    TMP DP  RH WIND       PRES   REMARKS
DULUTH         CLOUDY    46  43  89 NE5       29.83R
6HR MIN TEMP:  46; 6HR MAX TEMP:  48;

INTRNTL FALLS  LGT RAIN  46  43  89 NE10G20   29.91R VSB 1
6HR MIN TEMP:  46; 6HR MAX TEMP:  48; 6HR PCP:  0.05;

ELY            FOG       36  36 100 CALM      29.86R VSB 1/4
CLOQUET        CLOUDY    46  43  87 N3        29.84R
BRAINERD       CLOUDY    46  44  93 NE6       29.85R
6HR MIN TEMP:  45; 6HR MAX TEMP:  46; 6HR PCP: TRACE;

HIBBING        CLOUDY    41  41 100 CALM      29.85S
6HR MIN TEMP:  34; 6HR MAX TEMP:  41;

ALEXANDRIA     CLOUDY    46  45  96 N7        29.86R
6HR MIN TEMP:  45; 6HR MAX TEMP:  46; 6HR PCP:  0.03;

SAINT CLOUD    CLOUDY    46  45  96 MISG      29.83S
6HR MIN TEMP:  45; 6HR MAX TEMP:  47; 6HR PCP: TRACE;

MINNEAPOLIS    PTSUNNY   51  44  77 NW5       29.81R
6HR MIN TEMP:  49; 6HR MAX TEMP:  55; 6HR PCP:  0.01;

$$

  *****  WEATHER ACROSS SOUTH DAKOTA  *****

CITY           SKY/WX    TMP DP  RH WIND       PRES   REMARKS
SIOUX FALLS    CLOUDY    48  45  89 NW12      29.89R
6HR MIN TEMP:  47; 6HR MAX TEMP:  50; 6HR PCP: TRACE;

BROOKINGS      CLOUDY    46  44  93 NW9       29.88S
WATERTOWN      CLOUDY    45  44  97 N10       29.88S
6HR MIN TEMP:  45; 6HR MAX TEMP:  47; 6HR PCP:  0.03;

HURON          CLOUDY    47  45  93 N14       29.93S
6HR MIN TEMP:  46; 6HR MAX TEMP:  47; 6HR PCP: TRACE;

SISSETON         N/A     48  46  93 N15       29.90R
ABERDEEN       LGT RAIN  46  43  89 N13       29.96R FOG
6HR MIN TEMP:  46; 6HR MAX TEMP:  48; 6HR PCP:  0.01;

MITCHELL       CLOUDY    48  45  89 NW12      29.94R
PIERRE         CLOUDY    48  39  71 N16       30.01R
6HR MIN TEMP:  46; 6HR MAX TEMP:  53;

MOBRIDGE       CLOUDY    50  39  66 N10       30.00R
RAPID CITY     CLOUDY    48  39  71 N14       30.14R
6HR MIN TEMP:  44; 6HR MAX TEMP:  49;

$$

  *****  SOME WEATHER IN NEARBY STATES *****

CITY           SKY/WX    TMP DP  RH WIND       PRES   REMARKS
GLASGOW MT     FAIR      39  31  72 N5        30.17S
6HR MIN TEMP:  38; 6HR MAX TEMP:  46;

GREAT FALLS MT FAIR      46  37  71 CALM      30.13F
6HR MIN TEMP:  40; 6HR MAX TEMP:  53;

CHEYENNE WY    CLOUDY    40  33  76 NW9       30.21S
6HR MIN TEMP:  37; 6HR MAX TEMP:  40; 6HR PCP:  0.01;

SCOTTSBLUFF NE CLOUDY    38  35  89 W7        30.16S
6HR MIN TEMP:  35; 6HR MAX TEMP:  41;

OMAHA NE       FAIR      50  43  77 NW10      29.91S
6HR MIN TEMP:  47; 6HR MAX TEMP:  56;

DES MOINES IA  FAIR      52  49  89 NW7       29.85R
6HR MIN TEMP:  52; 6HR MAX TEMP:  55;

DAVENPORT IA   PTSUNNY   55  52  89 SW8       29.79F
6HR MIN TEMP:  53; 6HR MAX TEMP:  57;

CHICAGO IL     CLOUDY    59  52  77 SW10      29.81R
6HR MIN TEMP:  59; 6HR MAX TEMP:  60;

EAU CLAIRE WI  CLOUDY    49  47  93 NE3       29.80R
6HR MIN TEMP:  49; 6HR MAX TEMP:  52; 6HR PCP:  0.02;

LA CROSSE WI   CLOUDY    55  52  89 CALM      29.77R
6HR MIN TEMP:  52; 6HR MAX TEMP:  55; 6HR PCP: TRACE;

$$

  *****  SOME NATIONAL WEATHER *****

CITY           SKY/WX    TMP DP  RH WIND       PRES   REMARKS
LA GUARDIA NY  PTSUNNY   60  51  72 NE6       29.95F
6HR MIN TEMP:  59; 6HR MAX TEMP:  61;



USA.gov is the U.S. government's official web portal to all federal, state and local government web resources and services.